SCP
0 -1 -1 -2 -1 -1 -1 -1 -1 -1 -1 -1 -1 -0 -1 -0 -0 -0 -0 -0 -0 -0 -0 -0 -0 -0 -0 -0 -0 -0 0 0 0 0 0 0 0 0 0 0 0 0 0
-0 -1 -2 -2 -1 -1 -1 -1 -2 -1 -1 -1 -1 -1 -1 -1 -0 -0 -0 -0 -0 -0 -0 -0 -0 -0 -0 -0 -0 0 0 0 0 0 0 0 0 0 0 0 0 0 0
-0 -1 -1 -1 -1 -1 -1 -1 -1 -2 -1 -1 -1 -0 -1 -1 -0 -0 -0 -0 -0 -0 -0 -0 -0 -0 -0 -0 -0 0 0 0 0 0 0 0 0 0 0 0 0 0 0
-1 -1 -1 -1 -1 -1 -1 -1 -1 -1 -1 -1 -1 -0 -1 -1 -0 -0 -0 -0 -0 -0 -0 -0 -0 -0 -0 -0 0 0 0 0 0 0 0 0 0 0 0 0 0 0 0
1 0 -0 -1 -1 -1 -0 -1 -1 -1 -1 -1 -1 -1 -0 -0 -0 -0 -0 -0 -0 -0 -0 -0 -0 -0 -0 -0 -0 0 0 0 0 0 0 0 0 0 0 0 0 0 0
1 -0 -0 -0 -0 -0 -0 -1 -1 -1 -1 -1 -1 -0 -0 -0 -0 -0 -0 -0 -0 -0 -0 -0 -0 -0 -0 -0 -0 0 0 0 0 0 0 0 0 1 0 0 0 0 0
1 1 0 0 -0 0 0 -0 -0 -0 -1 -1 -1 -1 -0 -0 -0 -0 -0 -0 -0 -0 -0 -0 -0 -0 -0 -0 0 0 0 0 0 0 0 0 0 0 0 0 0 0 0
1 1 1 1 1 0 0 0 0 0 -0 -0 -0 -0 -0 -0 -0 -0 -0 -0 -0 -0 -0 -0 -0 -0 -0 0 0 0 0 0 0 0 0 0 0 0 0 0 0 0 0
1 1 1 1 1 1 0 0 0 0 0 0 -0 -0 -0 -0 -0 -0 -0 -0 -0 -0 -0 -0 -0 -0 -0 0 0 0 0 0 0 0 0 1 1 0 0 0 0 0 0
1 1 1 1 1 0 0 0 0 0 0 -0 -0 0 0 0 0 0 0 0 0 0 0 -0 -0 0 -0 0 0 0 0 0 0 0 0 1 0 0 0 0 0 0 0
2 2 1 1 1 1 0 1 0 0 0 0 0 0 0 0 0 0 0 0 0 0 0 0 0 0 0 0 0 0 0 0 0 0 1 0 0 0 0 0 0 0 0
1 2 2 1 1 1 0 0 0 0 0 0 0 0 0 0 0 0 0 0 0 0 0 0 0 0 0 0 0 0 0 0 0 0 1 0 0 0 0 0 0 0 0
0 1 2 2 1 1 1 1 1 0 0 0 0 0 0 0 0 0 0 0 0 0 0 0 0 0 0 0 0 0 0 0 0 1 0 0 0 0 0 0 0 0 0
0 1 2 2 1 1 1 1 0 0 0 0 0 0 0 0 0 0 0 0 0 0 0 0 0 0 0 0 0 0 0 0 1 0 0 0 0 0 0 0 0 0 0
0 0 1 1 2 2 1 1 0 0 0 0 0 0 0 0 0 0 0 0 0 0 0 0 0 0 0 0 0 0 0 0 1 0 0 0 0 0 0 0 0 0 0
0 -0 0 2 2 1 1 1 1 0 0 0 0 0 0 0 0 0 0 0 0 0 0 0 0 0 0 0 0 0 0 1 1 0 0 0 0 0 0 0 0 0 0
0 0 -0 2 2 2 2 1 1 1 0 0 0 0 0 0 0 0 0 0 0 0 0 0 0 0 0 0 1 1 1 0 0 0 0 0 0 0 0 0 0 0 0
0 0 -0 2 2 3 3 2 1 1 0 0 0 0 0 0 0 0 0 0 0 0 0 0 0 0 0 0 1 1 0 0 0 0 0 0 0 0 0 0 0 0 0
0 0 0 1 2 4 4 2 1 1 1 0 0 0 0 0 0 0 0 0 0 0 0 0 0 0 0 0 0 0 0 0 0 0 0 0 0 0 0 0 0 0 0
0 0 1 2 3 4 6 4 2 1 0 0 0 0 0 0 0 0 0 0 0 0 0 1 0 0 0 0 0 0 0 0 0 0 0 0 0 0 0 0 0 0 0
0 1 1 2 2 4 3 3 2 1 1 0 0 0 0 0 0 1 1 1 0 0 1 0 0 0 0 0 0 0 0 0 0 0 0 0 0 0 0 0 0 0 0
0 1 2 1 2 3 2 1 3 2 1 1 0 0 0 0 0 1 1 1 1 0 0 0 0 0 0 0 0 0 0 0 0 0 0 0 0 0 0 0 0 0 0
0 1 1 1 1 2 3 5 3 1 1 0 0 0 0 0 0 0 1 1 1 0 0 0 0 0 0 0 0 0 0 0 0 0 0 0 0 0 0 0 0 0 0
0 0 1 1 2 2 4 4 3 3 1 1 1 1 1 0 0 0 1 1 1 0 0 0 0 0 0 0 0 0 0 0 0 0 0 0 0 0 0 0 0 0 0
0 0 1 1 1 1 2 1 1 2 2 1 1 1 1 1 0 0 1 1 0 0 0 0 0 0 0 0 0 0 0 0 0 0 0 0 0 0 0 0 0 0 0
0 0 0 0 1 1 1 1 1 1 1 2 1 1 1 1 1 0 1 0 0 0 0 0 0 0 0 0 0 0 0 0 0 0 0 0 0 0 0 0 0 0 0
Wind_Speed_500mb
41 71 64 55 50 51 48 44 41 45 50 46 39 40 42 45 49 52 53 53 54 55 51 44 37 31 31 29 28 28 27 26 23 20 20 21 21 23 25 27 25 21 19
45 69 66 58 54 55 50 46 41 45 50 46 42 41 41 45 50 50 51 51 51 48 45 38 33 26 27 28 27 25 26 22 14 12 12 15 16 20 22 24 22 19 20
48 69 66 60 56 57 51 46 40 46 50 46 43 42 40 44 50 50 49 49 47 43 38 35 31 25 25 26 25 22 22 15 10 8 9 8 10 15 19 22 26 24 23
50 70 68 62 59 57 52 46 39 45 49 47 43 42 41 45 50 50 49 47 42 36 34 30 27 24 24 24 22 19 18 14 7 8 7 6 7 14 19 24 28 26 25
58 72 68 65 63 58 52 45 40 43 48 48 45 44 42 43 48 49 46 43 38 34 32 28 24 24 24 23 22 19 17 10 6 4 1 4 6 12 18 25 28 28 29
58 71 68 67 64 59 52 45 40 42 48 50 47 46 45 44 46 47 44 41 35 33 31 27 25 23 22 22 21 20 15 10 3 2 4 3 3 10 18 24 27 31 34
57 66 69 68 64 58 52 44 39 40 44 48 49 49 46 43 45 47 44 38 35 31 28 24 23 21 21 20 20 18 15 12 7 2 3 1 4 11 17 23 28 34 39
55 64 69 67 62 58 53 47 39 37 42 46 48 48 46 44 46 47 42 37 34 30 25 23 22 21 19 19 18 16 13 10 9 6 3 1 4 11 17 22 28 36 42
49 59 67 68 62 57 52 46 40 38 40 43 46 47 45 44 46 46 40 36 34 28 24 22 21 20 20 17 14 12 9 6 5 4 2 2 5 11 18 21 27 36 43
37 47 61 66 64 58 52 47 42 39 40 42 44 44 44 45 46 44 39 35 30 25 24 23 22 20 17 15 13 11 10 8 4 3 7 7 6 12 16 21 30 39 44
34 45 52 62 65 60 55 50 44 42 41 41 43 44 43 46 47 45 40 34 29 25 24 24 22 18 16 14 12 11 11 6 1 6 8 6 9 15 17 23 32 37 41
34 37 44 55 63 62 57 54 50 48 46 47 48 47 47 47 47 45 39 33 29 26 24 23 21 18 16 15 12 10 8 7 6 8 11 8 14 17 20 25 31 34 41
30 38 45 50 56 60 59 58 56 52 51 50 48 48 48 48 47 42 39 35 31 27 23 21 21 22 21 17 12 9 8 9 12 11 12 11 21 20 20 23 32 38 40
30 35 50 49 58 60 57 60 59 58 55 54 51 49 51 51 47 43 40 35 30 26 24 21 21 23 23 16 12 9 9 10 14 15 13 17 21 18 20 25 33 37 35
28 36 47 62 61 62 64 64 62 62 59 55 53 52 52 51 47 42 38 34 30 24 21 20 22 23 22 18 12 11 9 12 17 15 17 22 19 21 20 26 29 32 32
32 33 53 58 69 69 71 72 69 65 62 59 56 52 52 50 47 43 39 33 28 24 23 24 25 25 20 16 14 11 16 23 20 17 21 23 20 23 20 21 25 25 25
35 41 51 62 68 77 73 74 73 71 68 64 58 54 51 51 48 43 39 34 29 27 25 26 24 22 20 21 15 16 24 17 18 20 23 23 21 18 18 18 18 19 21
40 43 55 59 68 76 82 76 75 73 71 67 61 57 52 50 49 44 41 36 32 29 28 27 24 23 24 24 20 20 18 18 21 25 25 24 20 17 14 13 13 15 16
40 46 55 63 69 71 79 80 73 72 74 70 65 58 52 50 50 47 41 38 36 33 30 26 25 27 25 25 21 16 20 19 21 26 25 23 23 18 13 11 14 14 14
40 46 51 62 64 69 80 78 72 65 69 70 66 60 53 52 54 51 48 40 36 33 29 27 27 26 23 22 21 19 19 22 27 28 24 25 24 19 17 16 17 12 16
40 45 49 60 73 72 68 83 82 73 70 71 69 62 56 57 58 53 51 45 35 35 31 26 30 27 27 25 20 18 18 21 23 22 24 23 24 22 22 23 22 21 17
40 44 52 64 67 76 76 71 78 89 72 64 66 65 61 61 62 58 53 48 41 37 31 29 31 29 30 26 21 17 9 14 18 17 20 22 25 24 26 28 30 29 28
40 41 46 61 67 69 77 86 72 65 65 70 75 72 69 64 66 64 54 46 40 33 29 28 33 30 26 25 26 17 8 11 13 18 22 23 24 25 26 30 34 32 30
47 40 41 52 66 74 84 80 89 71 80 86 80 75 70 66 70 64 52 49 41 33 31 32 32 33 26 24 26 28 29 18 10 7 18 24 21 21 17 20 24 27 28
63 54 47 42 56 66 73 80 74 76 84 86 83 81 73 72 74 70 58 49 42 36 38 34 33 28 25 27 26 19 16 17 15 12 12 10 10 8 10 12 16 24 31
72 68 60 52 49 59 63 70 77 78 95 87 83 82 81 76 78 69 56 50 44 41 45 34 29 28 25 25 23 16 11 9 11 10 9 13 13 11 17 20 24 32 40
Wind_Direction_500mb
188 178 179 180 179 177 176 175 171 171 169 164 160 157 169 167 162 160 159 158 156 155 156 156 153 139 144 142 137 135 132 126 113 99 86 74 62 52 45 39 36 29 20
192 182 183 184 183 179 179 176 176 174 171 167 164 162 171 169 164 163 162 159 157 158 162 162 161 153 146 147 146 142 141 136 119 98 92 71 54 46 37 30 25 18 11
199 184 184 184 183 181 180 178 184 179 175 173 171 169 172 171 168 166 165 162 159 159 162 163 161 157 151 152 153 149 149 144 127 100 93 68 42 33 25 16 13 8 2
198 186 185 182 184 182 181 181 189 182 180 180 178 178 176 173 170 170 169 167 163 164 163 164 163 160 157 161 161 161 160 151 120 89 72 68 57 21 10 5 1 358 355
196 189 187 183 183 184 184 188 189 186 185 185 186 185 179 175 173 173 171 171 170 169 167 167 163 164 165 168 171 171 170 158 123 35 199 101 63 9 3 355 353 358 356
191 188 187 185 185 185 187 192 192 190 189 189 189 188 182 178 177 176 175 172 171 170 167 166 165 167 173 176 181 186 190 182 144 87 141 135 13 7 354 350 356 0 359
189 187 187 187 187 187 190 195 195 194 192 191 189 188 185 182 180 178 177 175 173 171 168 172 173 176 180 186 190 193 200 204 200 161 155 190 11 354 345 355 359 1 356
191 187 189 188 188 190 192 195 196 197 196 195 193 191 188 185 182 180 180 179 175 172 171 175 183 183 188 195 196 203 206 212 226 228 204 20 7 333 348 357 358 357 352
195 190 190 188 189 192 195 196 197 198 198 197 197 193 189 186 185 184 183 179 174 171 173 180 189 190 191 199 199 195 186 178 174 169 213 243 287 338 346 347 352 350 348
193 193 193 191 190 191 194 195 197 200 198 196 194 193 190 187 188 188 187 186 184 182 182 187 195 199 194 193 187 172 164 144 148 245 223 236 293 325 329 335 345 349 348
198 194 197 191 194 194 195 195 196 197 195 192 190 191 190 189 190 191 194 195 195 193 191 195 202 201 193 183 178 171 164 141 203 228 208 232 293 312 317 331 338 347 346
203 197 197 198 195 195 197 197 196 195 192 192 192 192 193 194 194 196 196 201 203 202 202 204 206 201 186 176 167 174 163 180 210 214 217 251 297 303 314 325 342 349 354
216 206 203 203 202 196 198 200 199 197 195 195 196 194 194 195 195 198 200 203 203 205 209 209 206 197 182 172 181 190 196 221 230 227 246 296 298 303 313 335 345 357 350
231 224 220 209 211 202 201 202 204 202 200 199 198 197 195 195 197 197 198 201 201 205 208 206 203 191 180 184 197 188 209 242 265 252 245 296 292 297 314 335 352 349 348
234 219 223 216 212 215 207 206 207 207 206 205 202 201 199 198 196 197 199 198 203 204 203 193 187 178 181 193 208 219 238 257 253 258 265 284 277 287 306 338 343 347 347
230 220 212 221 222 213 214 211 211 211 210 208 207 207 204 201 199 198 197 201 205 201 191 177 176 177 179 190 193 227 251 257 229 243 281 279 268 277 315 332 345 348 356
234 215 213 217 220 219 218 213 213 215 212 211 210 211 209 205 202 200 200 205 201 195 182 175 179 185 191 202 222 229 248 237 246 266 281 265 265 283 306 333 345 354 1
234 224 212 218 217 216 219 216 213 216 215 213 213 214 211 209 206 202 202 202 198 189 182 185 189 197 207 220 236 235 233 251 257 275 267 260 257 272 298 328 337 345 356
230 232 220 217 213 217 219 216 216 214 216 214 215 216 214 210 208 203 202 191 182 180 182 192 204 210 221 220 225 225 256 253 266 274 266 251 257 266 283 297 314 325 334
235 230 232 218 217 217 218 210 215 216 218 217 216 217 215 212 208 204 197 190 186 184 188 191 195 207 213 216 213 238 256 257 269 264 250 249 251 258 277 287 292 299 305
235 227 230 215 208 207 210 211 212 215 215 216 216 216 217 214 205 198 196 197 194 189 193 200 210 220 221 215 222 237 251 253 249 248 246 243 251 261 271 279 277 282 296
243 227 225 224 213 214 206 215 221 215 212 215 217 216 216 214 206 201 201 203 198 197 197 210 222 223 216 212 218 231 230 253 244 238 246 252 257 262 269 271 273 278 286
243 243 230 227 215 218 216 210 214 208 215 217 213 216 213 211 207 207 202 198 197 202 207 207 213 217 221 230 238 223 215 233 193 236 248 254 264 271 274 266 270 275 286
230 236 241 232 226 217 214 216 225 228 218 216 212 214 213 210 206 204 203 199 198 203 206 208 208 213 229 247 254 241 239 237 198 207 249 269 285 290 277 266 263 274 286
223 233 234 239 238 231 230 228 230 226 219 214 213 213 211 207 204 202 200 199 198 202 205 206 211 222 237 253 244 235 224 228 236 229 244 240 279 270 270 258 274 289 300
224 225 232 231 241 234 229 221 225 223 214 211 214 212 210 204 202 202 202 201 198 200 203 203 212 227 241 237 216 193 205 246 261 263 252 237 237 265 268 281 294 304 310
Wind_Speed_850mb
41 71 64 55 50 51 48 44 41 45 50 46 39 40 42 45 49 52 53 53 54 55 51 44 37 31 31 29 28 28 27 26 23 20 20 21 21 23 25 27 25 21 19
45 69 66 58 54 55 50 46 41 45 50 46 42 41 41 45 50 50 51 51 51 48 45 38 33 26 27 28 27 25 26 22 14 12 12 15 16 20 22 24 22 19 20
48 69 66 60 56 57 51 46 40 46 50 46 43 42 40 44 50 50 49 49 47 43 38 35 31 25 25 26 25 22 22 15 10 8 9 8 10 15 19 22 26 24 23
50 70 68 62 59 57 52 46 39 45 49 47 43 42 41 45 50 50 49 47 42 36 34 30 27 24 24 24 22 19 18 14 7 8 7 6 7 14 19 24 28 26 25
58 72 68 65 63 58 52 45 40 43 48 48 45 44 42 43 48 49 46 43 38 34 32 28 24 24 24 23 22 19 17 10 6 4 1 4 6 12 18 25 28 28 29
58 71 68 67 64 59 52 45 40 42 48 50 47 46 45 44 46 47 44 41 35 33 31 27 25 23 22 22 21 20 15 10 3 2 4 3 3 10 18 24 27 31 34
57 66 69 68 64 58 52 44 39 40 44 48 49 49 46 43 45 47 44 38 35 31 28 24 23 21 21 20 20 18 15 12 7 2 3 1 4 11 17 23 28 34 39
55 64 69 67 62 58 53 47 39 37 42 46 48 48 46 44 46 47 42 37 34 30 25 23 22 21 19 19 18 16 13 10 9 6 3 1 4 11 17 22 28 36 42
49 59 67 68 62 57 52 46 40 38 40 43 46 47 45 44 46 46 40 36 34 28 24 22 21 20 20 17 14 12 9 6 5 4 2 2 5 11 18 21 27 36 43
37 47 61 66 64 58 52 47 42 39 40 42 44 44 44 45 46 44 39 35 30 25 24 23 22 20 17 15 13 11 10 8 4 3 7 7 6 12 16 21 30 39 44
34 45 52 62 65 60 55 50 44 42 41 41 43 44 43 46 47 45 40 34 29 25 24 24 22 18 16 14 12 11 11 6 1 6 8 6 9 15 17 23 32 37 41
34 37 44 55 63 62 57 54 50 48 46 47 48 47 47 47 47 45 39 33 29 26 24 23 21 18 16 15 12 10 8 7 6 8 11 8 14 17 20 25 31 34 41
30 38 45 50 56 60 59 58 56 52 51 50 48 48 48 48 47 42 39 35 31 27 23 21 21 22 21 17 12 9 8 9 12 11 12 11 21 20 20 23 32 38 40
30 35 50 49 58 60 57 60 59 58 55 54 51 49 51 51 47 43 40 35 30 26 24 21 21 23 23 16 12 9 9 10 14 15 13 17 21 18 20 25 33 37 35
28 36 47 62 61 62 64 64 62 62 59 55 53 52 52 51 47 42 38 34 30 24 21 20 22 23 22 18 12 11 9 12 17 15 17 22 19 21 20 26 29 32 32
32 33 53 58 69 69 71 72 69 65 62 59 56 52 52 50 47 43 39 33 28 24 23 24 25 25 20 16 14 11 16 23 20 17 21 23 20 23 20 21 25 25 25
35 41 51 62 68 77 73 74 73 71 68 64 58 54 51 51 48 43 39 34 29 27 25 26 24 22 20 21 15 16 24 17 18 20 23 23 21 18 18 18 18 19 21
40 43 55 59 68 76 82 76 75 73 71 67 61 57 52 50 49 44 41 36 32 29 28 27 24 23 24 24 20 20 18 18 21 25 25 24 20 17 14 13 13 15 16
40 46 55 63 69 71 79 80 73 72 74 70 65 58 52 50 50 47 41 38 36 33 30 26 25 27 25 25 21 16 20 19 21 26 25 23 23 18 13 11 14 14 14
40 46 51 62 64 69 80 78 72 65 69 70 66 60 53 52 54 51 48 40 36 33 29 27 27 26 23 22 21 19 19 22 27 28 24 25 24 19 17 16 17 12 16
40 45 49 60 73 72 68 83 82 73 70 71 69 62 56 57 58 53 51 45 35 35 31 26 30 27 27 25 20 18 18 21 23 22 24 23 24 22 22 23 22 21 17
40 44 52 64 67 76 76 71 78 89 72 64 66 65 61 61 62 58 53 48 41 37 31 29 31 29 30 26 21 17 9 14 18 17 20 22 25 24 26 28 30 29 28
40 41 46 61 67 69 77 86 72 65 65 70 75 72 69 64 66 64 54 46 40 33 29 28 33 30 26 25 26 17 8 11 13 18 22 23 24 25 26 30 34 32 30
47 40 41 52 66 74 84 80 89 71 80 86 80 75 70 66 70 64 52 49 41 33 31 32 32 33 26 24 26 28 29 18 10 7 18 24 21 21 17 20 24 27 28
63 54 47 42 56 66 73 80 74 76 84 86 83 81 73 72 74 70 58 49 42 36 38 34 33 28 25 27 26 19 16 17 15 12 12 10 10 8 10 12 16 24 31
72 68 60 52 49 59 63 70 77 78 95 87 83 82 81 76 78 69 56 50 44 41 45 34 29 28 25 25 23 16 11 9 11 10 9 13 13 11 17 20 24 32 40
Wind_Direction_850mb
188 178 179 180 179 177 176 175 171 171 169 164 160 157 169 167 162 160 159 158 156 155 156 156 153 139 144 142 137 135 132 126 113 99 86 74 62 52 45 39 36 29 20
192 182 183 184 183 179 179 176 176 174 171 167 164 162 171 169 164 163 162 159 157 158 162 162 161 153 146 147 146 142 141 136 119 98 92 71 54 46 37 30 25 18 11
199 184 184 184 183 181 180 178 184 179 175 173 171 169 172 171 168 166 165 162 159 159 162 163 161 157 151 152 153 149 149 144 127 100 93 68 42 33 25 16 13 8 2
198 186 185 182 184 182 181 181 189 182 180 180 178 178 176 173 170 170 169 167 163 164 163 164 163 160 157 161 161 161 160 151 120 89 72 68 57 21 10 5 1 358 355
196 189 187 183 183 184 184 188 189 186 185 185 186 185 179 175 173 173 171 171 170 169 167 167 163 164 165 168 171 171 170 158 123 35 199 101 63 9 3 355 353 358 356
191 188 187 185 185 185 187 192 192 190 189 189 189 188 182 178 177 176 175 172 171 170 167 166 165 167 173 176 181 186 190 182 144 87 141 135 13 7 354 350 356 0 359
189 187 187 187 187 187 190 195 195 194 192 191 189 188 185 182 180 178 177 175 173 171 168 172 173 176 180 186 190 193 200 204 200 161 155 190 11 354 345 355 359 1 356
191 187 189 188 188 190 192 195 196 197 196 195 193 191 188 185 182 180 180 179 175 172 171 175 183 183 188 195 196 203 206 212 226 228 204 20 7 333 348 357 358 357 352
195 190 190 188 189 192 195 196 197 198 198 197 197 193 189 186 185 184 183 179 174 171 173 180 189 190 191 199 199 195 186 178 174 169 213 243 287 338 346 347 352 350 348
193 193 193 191 190 191 194 195 197 200 198 196 194 193 190 187 188 188 187 186 184 182 182 187 195 199 194 193 187 172 164 144 148 245 223 236 293 325 329 335 345 349 348
198 194 197 191 194 194 195 195 196 197 195 192 190 191 190 189 190 191 194 195 195 193 191 195 202 201 193 183 178 171 164 141 203 228 208 232 293 312 317 331 338 347 346
203 197 197 198 195 195 197 197 196 195 192 192 192 192 193 194 194 196 196 201 203 202 202 204 206 201 186 176 167 174 163 180 210 214 217 251 297 303 314 325 342 349 354
216 206 203 203 202 196 198 200 199 197 195 195 196 194 194 195 195 198 200 203 203 205 209 209 206 197 182 172 181 190 196 221 230 227 246 296 298 303 313 335 345 357 350
231 224 220 209 211 202 201 202 204 202 200 199 198 197 195 195 197 197 198 201 201 205 208 206 203 191 180 184 197 188 209 242 265 252 245 296 292 297 314 335 352 349 348
234 219 223 216 212 215 207 206 207 207 206 205 202 201 199 198 196 197 199 198 203 204 203 193 187 178 181 193 208 219 238 257 253 258 265 284 277 287 306 338 343 347 347
230 220 212 221 222 213 214 211 211 211 210 208 207 207 204 201 199 198 197 201 205 201 191 177 176 177 179 190 193 227 251 257 229 243 281 279 268 277 315 332 345 348 356
234 215 213 217 220 219 218 213 213 215 212 211 210 211 209 205 202 200 200 205 201 195 182 175 179 185 191 202 222 229 248 237 246 266 281 265 265 283 306 333 345 354 1
234 224 212 218 217 216 219 216 213 216 215 213 213 214 211 209 206 202 202 202 198 189 182 185 189 197 207 220 236 235 233 251 257 275 267 260 257 272 298 328 337 345 356
230 232 220 217 213 217 219 216 216 214 216 214 215 216 214 210 208 203 202 191 182 180 182 192 204 210 221 220 225 225 256 253 266 274 266 251 257 266 283 297 314 325 334
235 230 232 218 217 217 218 210 215 216 218 217 216 217 215 212 208 204 197 190 186 184 188 191 195 207 213 216 213 238 256 257 269 264 250 249 251 258 277 287 292 299 305
235 227 230 215 208 207 210 211 212 215 215 216 216 216 217 214 205 198 196 197 194 189 193 200 210 220 221 215 222 237 251 253 249 248 246 243 251 261 271 279 277 282 296
243 227 225 224 213 214 206 215 221 215 212 215 217 216 216 214 206 201 201 203 198 197 197 210 222 223 216 212 218 231 230 253 244 238 246 252 257 262 269 271 273 278 286
243 243 230 227 215 218 216 210 214 208 215 217 213 216 213 211 207 207 202 198 197 202 207 207 213 217 221 230 238 223 215 233 193 236 248 254 264 271 274 266 270 275 286
230 236 241 232 226 217 214 216 225 228 218 216 212 214 213 210 206 204 203 199 198 203 206 208 208 213 229 247 254 241 239 237 198 207 249 269 285 290 277 266 263 274 286
223 233 234 239 238 231 230 228 230 226 219 214 213 213 211 207 204 202 200 199 198 202 205 206 211 222 237 253 244 235 224 228 236 229 244 240 279 270 270 258 274 289 300
224 225 232 231 241 234 229 221 225 223 214 211 214 212 210 204 202 202 202 201 198 200 203 203 212 227 241 237 216 193 205 246 261 263 252 237 237 265 268 281 294 304 310